Tracking 29892 objects as of 21-Nov-2024
HD Live streaming from Space Station
objects crossing your sky now

ONEWEB-0133

Track ONEWEB-0133 now!
10-day predictions
ONEWEB-0133 is classified as:


NORAD ID: 47279
Int'l Code: 2020-100X
Perigee: 1,219.7 km
Apogee: 1,222.1 km
Inclination: 87.9 °
Period: 109.7 minutes
Semi major axis: 7591 km
RCS: Unknown
Launch date: December 18, 2020
Source: United Kingdom (UK)
Launch site: VOSTOCHNY COSMODROME (VOSTO)
Your satellite tracking list
Your tracking list is empty




NASA's NSSDC Master Catalog

Two Line Element Set (TLE):
1 47279U 20100X   24325.39496442  .00000347  00000-0  92861-3 0  9992
2 47279  87.8860 104.9230 0001579  94.3322 265.7987 13.12441940189474
Source of the keplerian elements: AFSPC